Watsonville, CA

3:33 AM PST on December 13, 2019 (GMT -0800)
Watsonville Municipal

Weather History for KWVI - August, 2019

Change the Weather History Date:

Thursday, August 15, 2019

  Actual Average Record
Temperature  
Mean Temperature 71 °F 64 °F  
Max Temperature 87 °F 74 °F 101 °F (2015)
Min Temperature 54 °F 53 °F 48 °F (2000)
Degree Days  
Heating Degree Days 0    
Month to date heating degree days 6  
Since 1 June heating degree days 144  
Since 1 July heating degree days 53  
Cooling Degree Days 6    
Month to date cooling degree days 32  
Year to date cooling degree days 86  
Since 1 June cooling degree days 86  
Growing Degree Days 22 (Base 50)    
Moisture  
Dew Point 56 °F    
Average Humidity 65    
Maximum Humidity 93    
Minimum Humidity 37    
Precipitation  
Precipitation 0.00 in - 0.38 in (1976)
Month to date precipitation T  
Year to date precipitation 22.76  
Sea Level Pressure  
Sea Level Pressure 29.93 in    
Wind  
Wind Speed 4 mph (SW)    
Max Wind Speed 12 mph    
Max Gust Speed 16 mph    
Visibility 9 miles    
Events      
T = Trace of Precipitation, MM = Missing Value Source: NWS Daily Summary

Daily Weather History Graph

Daily Weather History Graph

Search for Another Location

Airport or City:

Astronomy

Aug. 15, 2019 Rise Set
Actual Time 6:23 AM PDT 7:58 PM PDT
Civil Twilight 5:56 AM PDT 8:26 PM PDT
Nautical Twilight 5:23 AM PDT 8:59 PM PDT
Astronomical Twilight 4:48 AM PDT 9:34 PM PDT
Moon 8:29 PM PDT (8/15) 6:24 AM PDT (8/15)
Length of Visible Light 14h 29m
Length of Day
13h 34m
Full, 100% of the Moon is Illuminated
Aug 15
Full
Aug 23
Last Quarter
Aug 30
New
Sep 5
First Quarter
Sep 13
Full

Hourly Weather History & Observations

Time (PDT) Temp. Heat Index Dew Point Humidity Pressure Visibility Wind Dir Wind Speed Gust Speed Precip Events Conditions
12:53 AM 61.0 °F - 55.9 °F 83% 29.96 in 10.0 mi Calm Calm - N/A   Unknown
1:53 AM 60.1 °F - 55.0 °F 83% 29.95 in 10.0 mi Calm Calm - N/A   Unknown
2:53 AM 60.1 °F - 55.0 °F 83% 29.94 in 10.0 mi Calm Calm - N/A   Clear
3:53 AM 57.9 °F - 54.0 °F 87% 29.94 in 10.0 mi Calm Calm - N/A   Clear
4:53 AM 57.0 °F - 54.0 °F 89% 29.96 in 10.0 mi Calm Calm - N/A   Clear
5:53 AM 57.0 °F - 53.1 °F 87% 29.96 in 10.0 mi Calm Calm - N/A   Clear
6:03 AM 57.0 °F - 54.0 °F 89% 29.96 in 10.0 mi Calm Calm - N/A   Scattered Clouds
6:11 AM 57.0 °F - 54.0 °F 89% 29.96 in 10.0 mi North 3.5 mph - N/A   Mostly Cloudy
6:53 AM 57.0 °F - 54.0 °F 89% 29.96 in 5.0 mi Calm Calm - N/A   Scattered Clouds
7:53 AM 63.0 °F - 55.9 °F 78% 29.96 in 10.0 mi Calm Calm - N/A   Clear
8:53 AM 70.0 °F - 57.9 °F 65% 29.96 in 10.0 mi Calm Calm - N/A   Clear
9:53 AM 77.0 °F - 57.0 °F 50% 29.95 in 10.0 mi Calm Calm - N/A   Clear
10:53 AM 84.0 °F 82.9 °F 55.0 °F 37% 29.95 in 10.0 mi SE 4.6 mph - N/A   Clear
11:53 AM 86.0 °F 85.0 °F 57.9 °F 38% 29.94 in 10.0 mi SSW 6.9 mph - N/A   Clear
12:53 PM 86.0 °F 85.0 °F 57.9 °F 38% 29.93 in 10.0 mi SSW 11.5 mph - N/A   Clear
1:53 PM 80.1 °F 80.4 °F 57.0 °F 45% 29.93 in 10.0 mi SW 11.5 mph - N/A   Clear
2:53 PM 81.0 °F 81.0 °F 57.0 °F 44% 29.92 in 10.0 mi WSW 9.2 mph - N/A   Clear
3:53 PM 80.1 °F 80.2 °F 55.9 °F 43% 29.91 in 10.0 mi SW 6.9 mph - N/A   Clear
4:53 PM 79.0 °F - 55.0 °F 44% 29.91 in 10.0 mi SW 8.1 mph - N/A   Clear
5:53 PM 79.0 °F - 53.1 °F 40% 29.89 in 10.0 mi WSW 6.9 mph - N/A   Clear
6:53 PM 72.0 °F - 57.9 °F 61% 29.88 in 10.0 mi South 6.9 mph - N/A   Clear
7:53 PM 64.0 °F - 57.9 °F 80% 29.89 in 9.0 mi SSW 4.6 mph - N/A   Clear
8:53 PM 62.1 °F - 57.9 °F 86% 29.90 in 8.0 mi SSW 5.8 mph - N/A   Clear
9:53 PM 60.1 °F - 57.0 °F 90% 29.91 in 8.0 mi Calm Calm - N/A   Clear
10:53 PM 59.0 °F - 57.0 °F 93% 29.90 in 6.0 mi SW 3.5 mph - N/A   Clear
11:53 PM 60.1 °F - 57.0 °F 90% 29.90 in 6.0 mi Calm Calm - N/A   Clear